Powrót do katalogu

KUIPER-00252

AktywnyŁącznośćLEO
NORAD 67157·PAYLOAD·🇺🇸 United States

Wystrzelony Dec 15, 2025 z Cape Canaveral Space Force Station

Loading…

Następne Przeloty (najbliższe 24 godziny)

TLE

ŚwieżeSource: CelesTrak SupGP

Epoka: Sep 14, 2026, 17:01 UTC

1 67157C 25301AA  26257.70947917  .00020628  00000+0  26984-2 0  2578
2 67157  51.8996 304.7724 0000372  81.4829 253.5516 14.79939671    11

Śledź KUIPER-00252 w czasie rzeczywistym z AllMySat

Download on the App Store